FW8300 Weather Reports


time (UTC)temp
C
wind
direction
speed
KPH
gust
KPH
rain 1hr
cm
rain 24hr
cm
rain mn
cm
humidity
%
barometer
mb
20260507154545 13 102 3.2 12.9 0.00 0.00 0.00 36 1011.6
20260507153043 11 127 4.8 11.3 0.00 0.00 0.00 39 1011.8
20260507151545 10 106 4.8 9.7 0.00 0.00 0.00 42 1012.0
20260507150045 8 127 4.8 9.7 0.00 0.00 0.00 45 1012.1
20260507144555 7 90 4.8 11.3 0.00 0.00 0.00 46 1011.9
20260507143046 6 89 3.2 6.4 0.00 0.00 0.00 47 1011.8
20260507141600 6 111 3.2 6.4 0.00 0.00 0.00 46 1011.9
20260507140052 6 119 0.0 4.8 0.00 0.00 0.00 45 1012.0
20260507134549 6 194 1.6 6.4 0.00 0.00 0.00 47 1011.9
20260507133048 5 181 1.6 4.8 0.00 0.00 0.00 49 1011.9
20260507131545 3 0 1.6 4.8 0.00 0.00 0.00 53 1011.7
20260507130043 2 173 1.6 8.0 0.00 0.00 0.00 60 1011.6
20260507124543 0 178 1.6 6.4 0.00 0.00 0.00 67 1011.6
20260507123046 -1 0 0.0 3.2 0.00 0.00 0.00 72 1011.4
20260507121545 -2 267 1.6 4.8 0.00 0.00 0.00 72 1011.3
20260507120047 -2 259 6.4 11.3 0.00 0.00 0.00 73 1011.2
20260507114548 -4 272 8.0 11.3 0.00 0.00 0.00 78 1010.8
20260507113044 -3 285 4.8 9.7 0.00 0.00 0.00 77 1010.6
20260507111557 -3 0 0.0 1.6 0.00 0.00 0.00 77 1010.5
20260507110044 -3 200 1.6 4.8 0.00 0.00 0.00 74 1010.5
20260507104549 -3 239 1.6 4.8 0.00 0.00 0.00 72 1010.3
20260507103049 -2 0 1.6 6.4 0.00 0.00 0.00 72 1010.3
20260507101556 -2 292 3.2 6.4 0.00 0.00 0.00 70 1010.4
20260507100049 -2 270 6.4 12.9 0.00 0.00 0.00 71 1010.2
20260507094544 -1 292 6.4 11.3 0.00 0.00 0.00 67 1010.1
20260507093046 -1 303 6.4 9.7 0.00 0.00 0.00 67 1010.0
20260507091549 -2 259 4.8 6.4 0.00 0.00 0.00 69 1009.9
20260507090045 -2 0 0.0 3.2 0.00 0.00 0.00 68 1010.0
20260507084549 -2 256 3.2 9.7 0.00 0.00 0.00 70 1010.1
20260507083055 -1 267 3.2 9.7 0.00 0.00 0.00 64 1010.1
20260507081550 0 279 3.2 6.4 0.00 0.00 0.00 63 1010.2
20260507080044 -1 252 3.2 9.7 0.00 0.00 0.00 65 1010.3
20260507074552 0 292 1.6 6.4 0.00 0.00 0.00 63 1010.3
20260507073045 0 248 4.8 9.7 0.00 0.00 0.00 59 1010.5
20260507071551 0 252 0.0 0.0 0.00 0.00 0.00 61 1010.7
20260507070051 0 0 0.0 3.2 0.00 0.00 0.00 59 1010.8
20260507064557 0 238 1.6 4.8 0.00 0.00 0.00 60 1010.9
20260507063047 0 248 3.2 6.4 0.00 0.00 0.00 59 1011.0
20260507061546 0 277 6.4 11.3 0.00 0.00 0.00 61 1010.9
20260507060045 2 275 3.2 6.4 0.00 0.00 0.00 51 1010.9
20260507054544 3 254 4.8 11.3 0.00 0.00 0.00 48 1010.8
20260507053045 2 270 9.7 12.9 0.00 0.00 0.00 51 1010.8
20260507051544 2 276 3.2 6.4 0.00 0.00 0.00 50 1010.9
20260507050052 2 271 4.8 9.7 0.00 0.00 0.00 52 1011.0
20260507044546 2 271 9.7 12.9 0.00 0.00 0.00 53 1011.2
20260507043045 3 282 12.9 14.5 0.00 0.00 0.00 49 1011.6
20260507041553 3 271 4.8 12.9 0.00 0.00 0.00 48 1011.6
20260507040054 5 283 3.2 9.7 0.00 0.00 0.00 44 1011.6
20260507034544 4 229 4.8 11.3 0.00 0.00 0.00 47 1011.7
20260507033047 6 244 4.8 9.7 0.00 0.00 0.00 42 1011.8
20260507031544 5 254 8.0 11.3 0.00 0.00 0.00 44 1012.1
20260507030056 7 286 6.4 11.3 0.00 0.00 0.00 39 1012.2
20260507024547 7 283 6.4 9.7 0.00 0.00 0.00 40 1012.3
20260507023046 8 277 4.8 9.7 0.00 0.00 0.00 36 1012.3
20260507021550 10 322 3.2 6.4 0.00 0.00 0.00 31 1012.4
20260507020045 11 0 1.6 3.2 0.00 0.00 0.00 28 1012.4
20260507014558 12 0 0.0 3.2 0.00 0.00 0.00 27 1012.4
20260507013103 12 0 0.0 1.6 0.00 0.00 0.00 25 1012.3
20260507011545 13 77 1.6 4.8 0.00 0.00 0.00 23 1012.3
20260507010046 13 104 3.2 9.7 0.00 0.00 0.00 22 1012.3
20260507004544 14 147 6.4 12.9 0.00 0.00 0.00 22 1012.5
20260507003044 14 139 4.8 11.3 0.00 0.00 0.00 23 1012.8
20260507001606 15 107 4.8 11.3 0.00 0.00 0.00 21 1013.1
20260507000049 15 111 8.0 12.9 0.00 0.00 0.00 21 1013.2
20260506234546 16 209 3.2 11.3 0.00 0.00 0.00 20 1013.5
20260506233050 16 94 9.7 24.1 0.00 0.00 0.00 20 1013.6
20260506231549 15 202 9.7 17.7 0.00 0.00 0.00 21 1013.6
20260506230054 14 208 14.5 22.5 0.00 0.00 0.00 22 1013.7
20260506224544 15 228 6.4 19.3 0.00 0.00 0.00 21 1013.8
20260506223104 14 222 14.5 25.7 0.00 0.00 0.00 22 1014.1
20260506221552 13 215 16.1 25.7 0.00 0.00 0.00 24 1014.3
20260506220045 12 274 12.9 24.1 0.00 0.00 0.00 26 1014.5
20260506214545 12 65 8.0 20.9 0.00 0.00 0.00 25 1014.7
20260506213046 12 294 14.5 20.9 0.00 0.00 0.00 25 1015.1
20260506211546 12 256 16.1 29.0 0.00 0.00 0.00 26 1015.2
20260506210051 12 211 12.9 27.4 0.00 0.00 0.00 24 1015.6
20260506204548 12 236 16.1 22.5 0.00 0.00 0.00 25 1015.7
20260506203047 12 238 17.7 27.4 0.00 0.00 0.00 25 1016.0
20260506201544 12 242 16.1 46.7 0.00 0.00 0.00 27 1016.2
20260506200117 11 217 14.5 25.7 0.00 0.00 0.00 26 1016.5
20260506194553 11 342 9.7 16.1 0.00 0.00 0.00 27 1016.6
20260506193045 11 277 16.1 25.7 0.00 0.00 0.00 26 1016.9
20260506191548 11 253 19.3 29.0 0.00 0.00 0.00 27 1017.2
20260506190049 10 301 3.2 41.8 0.00 0.00 0.00 29 1017.5
20260506184546 10 273 20.9 33.8 0.00 0.00 0.00 28 1017.8
20260506183044 10 327 8.0 20.9 0.00 0.00 0.00 28 1017.9
20260506181544 10 329 17.7 27.4 0.00 0.00 0.00 28 1018.3
20260506180048 9 309 12.9 27.4 0.00 0.00 0.00 28 1018.5
20260506174545 9 267 8.0 29.0 0.00 0.00 0.00 32 1018.6
20260506173102 8 267 16.1 29.0 0.00 0.00 0.00 29 1018.9
20260506171551 8 225 19.3 30.6 0.00 0.00 0.00 29 1019.0
20260506170044 8 325 8.0 33.8 0.00 0.00 0.00 31 1019.1
20260506164543 8 274 14.5 20.9 0.00 0.00 0.00 31 1019.2
20260506163049 8 305 9.7 33.8 0.00 0.00 0.00 34 1019.3
20260506161553 7 262 19.3 30.6 0.00 0.00 0.00 33 1019.4
20260506160053 7 292 16.1 27.4 0.00 0.00 0.00 32 1019.7